• In Schweiz
  • Länderverzeichnis
  • Für 7 Tage
  • Wassertemperatur
  • Satellitenkarten
  • Wetterkarte
  • Widgets
  • user-avatar
    Anmelden

    Stündliche Wetter Balcho

    Heute, 18 Juni, Montag

    Zeit Temperatur Niederschläge Wind Luftdruck Luftfeuchtigkeit
    00:00 +39°C° 0 mm 2 m/S 732 mmHg 22%
    01:00 +39°C° 0 mm 2 m/S 732 mmHg 23%
    02:00 +38°C° 0 mm 2 m/S 731 mmHg 24%
    03:00 +38°C° 0 mm 2 m/S 731 mmHg 26%
    04:00 +37°C° 0 mm 1 m/S 731 mmHg 26%
    05:00 +36°C° 0 mm 1 m/S 732 mmHg 26%
    06:00 +36°C° 0 mm 1 m/S 732 mmHg 27%
    07:00 +37°C° 0 mm 1 m/S 732 mmHg 25%
    08:00 +38°C° 0 mm 2 m/S 732 mmHg 24%
    09:00 +39°C° 0 mm 2 m/S 733 mmHg 23%
    10:00 +40°C° 0 mm 2 m/S 732 mmHg 21%
    11:00 +40°C° 0 mm 2 m/S 732 mmHg 20%
    12:00 +41°C° 0 mm 1 m/S 732 mmHg 19%
    13:00 +42°C° 0 mm 1 m/S 732 mmHg 18%
    14:00 +43°C° 0 mm 1 m/S 731 mmHg 17%
    15:00 +44°C° 0 mm 1 m/S 731 mmHg 16%
    16:00 +44°C° 0 mm 1 m/S 730 mmHg 16%
    17:00 +44°C° 0 mm 1 m/S 730 mmHg 16%
    18:00 +44°C° 0 mm 1 m/S 730 mmHg 16%
    19:00 +43°C° 0 mm 2 m/S 730 mmHg 18%
    20:00 +42°C° 0 mm 2 m/S 730 mmHg 19%
    21:00 +43°C° 0 mm 3 m/S 731 mmHg 21%
    22:00 +42°C° 0 mm 3 m/S 731 mmHg 22%
    23:00 +40°C° 0 mm 3 m/S 731 mmHg 23%

    Morgen, 19 Juni, Dienstag

    Zeit Temperatur Niederschläge Wind Luftdruck Luftfeuchtigkeit
    00:00 +40°C° 0 mm 3 m/S 731 mmHg 25%
    01:00 +39°C° 0 mm 3 m/S 731 mmHg 26%
    02:00 +39°C° 0 mm 3 m/S 731 mmHg 26%
    03:00 +38°C° 0 mm 2 m/S 730 mmHg 27%
    04:00 +38°C° 0 mm 2 m/S 731 mmHg 28%
    05:00 +38°C° 0 mm 2 m/S 731 mmHg 29%
    06:00 +36°C° 0 mm 1 m/S 731 mmHg 29%
    07:00 +38°C° 0 mm 2 m/S 732 mmHg 28%
    08:00 +39°C° 0 mm 2 m/S 732 mmHg 26%
    09:00 +39°C° 0 mm 2 m/S 733 mmHg 25%
    10:00 +40°C° 0 mm 2 m/S 733 mmHg 23%
    11:00 +41°C° 0 mm 2 m/S 732 mmHg 22%
    12:00 +42°C° 0 mm 2 m/S 732 mmHg 21%
    13:00 +43°C° 0 mm 2 m/S 732 mmHg 20%
    14:00 +44°C° 0 mm 1 m/S 731 mmHg 19%
    15:00 +44°C° 0 mm 1 m/S 731 mmHg 17%
    16:00 +44°C° 0 mm 1 m/S 731 mmHg 17%
    17:00 +44°C° 0 mm 1 m/S 730 mmHg 17%
    18:00 +44°C° 0 mm 1 m/S 730 mmHg 17%
    19:00 +43°C° 0 mm 2 m/S 731 mmHg 19%
    20:00 +44°C° 0 mm 3 m/S 731 mmHg 22%
    21:00 +43°C° 0 mm 4 m/S 731 mmHg 24%
    22:00 +42°C° 0 mm 4 m/S 732 mmHg 25%
    23:00 +42°C° 0 mm 4 m/S 732 mmHg 27%

    übermorgen, 20 Juni, Mittwoch

    Zeit Temperatur Niederschläge Wind Luftdruck Luftfeuchtigkeit
    00:00 +40°C° 0 mm 3 m/S 732 mmHg 28%
    01:00 +39°C° 0 mm 3 m/S 732 mmHg 29%
    02:00 +39°C° 0 mm 2 m/S 731 mmHg 30%
    03:00 +38°C° 0 mm 2 m/S 731 mmHg 31%
    04:00 +38°C° 0 mm 2 m/S 731 mmHg 32%
    05:00 +37°C° 0 mm 1 m/S 732 mmHg 34%
    06:00 +36°C° 0 mm 1 m/S 732 mmHg 35%
    07:00 +37°C° 0 mm 1 m/S 732 mmHg 32%
    08:00 +39°C° 0 mm 1 m/S 733 mmHg 29%
    09:00 +40°C° 0 mm 2 m/S 734 mmHg 27%
    10:00 +41°C° 0 mm 2 m/S 734 mmHg 25%
    11:00 +42°C° 0 mm 2 m/S 733 mmHg 22%
    12:00 +43°C° 0 mm 2 m/S 733 mmHg 20%
    13:00 +43°C° 0 mm 2 m/S 733 mmHg 19%
    14:00 +45°C° 0 mm 2 m/S 732 mmHg 17%
    15:00 +46°C° 0 mm 2 m/S 731 mmHg 15%
    16:00 +46°C° 0 mm 3 m/S 731 mmHg 15%
    17:00 +46°C° 0 mm 3 m/S 731 mmHg 15%
    18:00 +47°C° 0 mm 4 m/S 731 mmHg 15%
    19:00 +44°C° 0 mm 4 m/S 731 mmHg 18%
    20:00 +43°C° 0 mm 5 m/S 732 mmHg 22%
    21:00 +42°C° 0 mm 5 m/S 732 mmHg 25%
    22:00 +41°C° 0 mm 4 m/S 732 mmHg 25%
    23:00 +41°C° 0 mm 4 m/S 732 mmHg 24%

    21 Juni, Donnerstag

    Zeit Temperatur Niederschläge Wind Luftdruck Luftfeuchtigkeit
    00:00 +39°C° 0 mm 3 m/S 732 mmHg 24%
    01:00 +38°C° 0 mm 2 m/S 732 mmHg 24%
    02:00 +37°C° 0 mm 1 m/S 732 mmHg 25%
    03:00 +37°C° 0 mm 1 m/S 732 mmHg 25%
    04:00 +36°C° 0 mm 1 m/S 732 mmHg 26%
    05:00 +36°C° 0 mm 1 m/S 732 mmHg 27%
    06:00 +35°C° 0 mm 1 m/S 733 mmHg 28%
    07:00 +38°C° 0 mm 2 m/S 733 mmHg 27%
    08:00 +39°C° 0 mm 3 m/S 734 mmHg 26%
    09:00 +40°C° 0 mm 3 m/S 734 mmHg 25%
    10:00 +42°C° 0 mm 3 m/S 734 mmHg 23%
    11:00 +43°C° 0 mm 3 m/S 734 mmHg 21%
    12:00 +43°C° 0 mm 2 m/S 733 mmHg 19%
    13:00 +43°C° 0 mm 2 m/S 733 mmHg 17%
    14:00 +45°C° 0 mm 2 m/S 732 mmHg 15%
    15:00 +46°C° 0 mm 2 m/S 731 mmHg 14%
    16:00 +46°C° 0 mm 3 m/S 731 mmHg 14%
    17:00 +45°C° 0 mm 3 m/S 731 mmHg 14%
    18:00 +45°C° 0 mm 4 m/S 731 mmHg 14%
    19:00 +44°C° 0 mm 4 m/S 731 mmHg 17%
    20:00 +43°C° 0 mm 4 m/S 732 mmHg 21%
    21:00 +42°C° 0 mm 4 m/S 732 mmHg 24%
    22:00 +40°C° 0 mm 3 m/S 732 mmHg 25%
    23:00 +39°C° 0 mm 3 m/S 732 mmHg 26%

    22 Juni, Freitag

    Zeit Temperatur Niederschläge Wind Luftdruck Luftfeuchtigkeit
    00:00 +39°C° 0 mm 2 m/S 732 mmHg 27%
    01:00 +39°C° 0 mm 2 m/S 732 mmHg 28%
    02:00 +38°C° 0 mm 2 m/S 731 mmHg 28%
    03:00 +38°C° 0 mm 2 m/S 731 mmHg 29%
    04:00 +38°C° 0 mm 2 m/S 731 mmHg 30%
    05:00 +37°C° 0 mm 2 m/S 732 mmHg 31%
    06:00 +37°C° 0 mm 2 m/S 732 mmHg 31%
    07:00 +38°C° 0 mm 2 m/S 732 mmHg 29%
    08:00 +39°C° 0 mm 3 m/S 733 mmHg 27%
    09:00 +41°C° 0 mm 4 m/S 734 mmHg 24%
    10:00 +42°C° 0 mm 4 m/S 733 mmHg 22%
    11:00 +43°C° 0 mm 4 m/S 733 mmHg 20%
    12:00 +44°C° 0 mm 4 m/S 732 mmHg 18%
    13:00 +45°C° 0 mm 4 m/S 732 mmHg 16%
    14:00 +47°C° 0 mm 4 m/S 731 mmHg 15%
    15:00 +47°C° 0 mm 5 m/S 730 mmHg 14%
    16:00 +47°C° 0 mm 5 m/S 730 mmHg 14%
    17:00 +47°C° 0 mm 5 m/S 730 mmHg 15%
    18:00 +46°C° 0 mm 5 m/S 730 mmHg 15%
    19:00 +45°C° 0 mm 5 m/S 730 mmHg 19%
    20:00 +43°C° 0 mm 4 m/S 730 mmHg 23%
    21:00 +42°C° 0 mm 4 m/S 731 mmHg 27%
    22:00 +41°C° 0 mm 4 m/S 731 mmHg 30%
    23:00 +40°C° 0 mm 4 m/S 731 mmHg 32%

    23 Juni, Samstag

    Zeit Temperatur Niederschläge Wind Luftdruck Luftfeuchtigkeit
    00:00 +38°C° 0 mm 4 m/S 731 mmHg 34%
    01:00 +38°C° 0 mm 3 m/S 730 mmHg 34%
    02:00 +38°C° 0 mm 2 m/S 730 mmHg 33%
    03:00 +36°C° 0 mm 1 m/S 730 mmHg 33%
    04:00 +36°C° 0 mm 1 m/S 730 mmHg 33%
    05:00 +36°C° 0 mm 1 m/S 731 mmHg 34%
    06:00 +35°C° 0 mm 1 m/S 731 mmHg 34%
    07:00 +38°C° 0 mm 2 m/S 732 mmHg 30%
    08:00 +39°C° 0 mm 2 m/S 732 mmHg 26%
    09:00 +40°C° 0 mm 2 m/S 733 mmHg 22%
    10:00 +41°C° 0 mm 2 m/S 733 mmHg 21%
    11:00 +42°C° 0 mm 2 m/S 732 mmHg 19%
    12:00 +43°C° 0 mm 2 m/S 732 mmHg 18%
    13:00 +43°C° 0 mm 2 m/S 731 mmHg 17%
    14:00 +45°C° 0 mm 3 m/S 731 mmHg 16%
    15:00 +46°C° 0 mm 3 m/S 730 mmHg 15%
    16:00 +46°C° 0 mm 3 m/S 730 mmHg 15%
    17:00 +45°C° 0 mm 4 m/S 730 mmHg 16%
    18:00 +45°C° 0 mm 4 m/S 730 mmHg 16%
    19:00 +44°C° 0 mm 4 m/S 730 mmHg 18%
    20:00 +44°C° 0 mm 4 m/S 730 mmHg 20%
    21:00 +43°C° 0 mm 5 m/S 731 mmHg 21%
    22:00 +43°C° 0 mm 4 m/S 731 mmHg 21%
    23:00 +42°C° 0 mm 4 m/S 731 mmHg 21%
    Mehr zeigen